Location: Monroe
(41.9160°N, 83.3980°W)
Time: 16:41:57
(UTC-04:00)

Amateur Radio Satellites - All Passes

Search period start: 30 April 2016 16:11
Search period end: 01 May 2016 16:11
Location: Monroe, 41.9160°N, 83.3980°W

Satellite Date Start Highest point End Downlink Frequencies (MHz)
Time Altitude Azimuth
ITAMSAT 1 30 Apr 16:14:58 16:19:43 36° 262° (W) 16:24:30 435.822/435.867
Gurwin Techsat 1B 30 Apr 16:16:18 16:19:39 17° 269° (W) 16:23:01 435.225
ISS 30 Apr 16:23:01 16:25:52 28° 224° (SW) 16:28:42 145.825
CUSAT 1 30 Apr 16:29:51 16:33:03 79° 98° (E) 16:37:14 437.405
ITUPSAT 1 30 Apr 16:45:17 16:49:34 34° 292° (WNW) 16:53:50 437.325
MOZHAYETS 4 30 Apr 16:46:58 16:50:39 24° 94° (E) 16:54:19
PCSat 30 Apr 16:47:24 16:52:35 49° 114° (ESE) 16:57:49 145.827
SO-50 30 Apr 16:47:58 16:52:24 37° 49° (NE) 16:56:41 436.795
O/OREOS (USA 219) 30 Apr 16:48:35 16:53:03 51° 296° (WNW) 16:57:33 437.305
DANDE 30 Apr 16:49:12 16:51:46 37° 93° (E) 16:54:48 436.750
PHONESAT 2.4 30 Apr 16:51:16 16:53:50 22° 205° (SSW) 16:56:23 2401.200-2431.200
SWISSCUBE 30 Apr 16:56:34 17:00:22 24° 294° (WNW) 17:04:09 437.505
Cosmos 2491 30 Apr 16:58:21 17:02:22 13° 56° (NE) 17:06:20 435.465 / 435.565
KKS-1 30 Apr 17:02:47 17:07:11 53° 101° (E) 17:11:32 437.445
AO-85 30 Apr 17:03:44 17:04:42 10° 332° (NNW) 17:05:41 145.980
AO-7 30 Apr 17:13:52 17:21:42 46° 260° (W) 17:29:37 29.400- 29.500
NOAA 18 30 Apr 17:16:39 17:19:46 16° 58° (ENE) 17:22:53 137.9125
STARS 30 Apr 17:26:42 17:31:00 49° 100° (E) 17:35:15 437.465
CUTE-I 30 Apr 17:26:58 17:29:19 13° 58° (ENE) 17:31:40 437.470
HORYU 2 30 Apr 17:28:14 17:32:43 85° 259° (W) 17:37:12 437.375
BEESAT 30 Apr 17:31:23 17:33:37 13° 300° (WNW) 17:35:50 436.000
GOMX 1 30 Apr 18:06:59 18:09:15 13° 58° (ENE) 18:11:35 467.674
Cubesat XI-IV 30 Apr 18:07:52 18:12:24 29° 66° (ENE) 18:16:58 437.490
NOAA 15 30 Apr 18:14:42 18:19:46 50° 70° (ENE) 18:24:52 137.62
BRITE-PL 30 Apr 18:17:38 18:21:45 29° 66° (ENE) 18:26:10 437.365/2234.400
M-CUBED/EXP-1 PRIME 30 Apr 18:23:42 18:27:26 24° 61° (ENE) 18:31:09 437.505
MOZHAYETS 4 30 Apr 18:23:45 18:27:51 34° 291° (WNW) 18:31:58
CUBESAT XI-V 30 Apr 18:24:36 18:28:40 29° 95° (E) 18:32:43 437.345
SO-50 30 Apr 18:28:47 18:32:44 27° 247° (WSW) 18:36:34 436.795
PCSat 30 Apr 18:31:37 18:36:12 27° 312° (NW) 18:40:50 145.827
HO-68 30 Apr 18:40:33 18:43:04 12° 48° (NE) 18:45:35 435.675
KKS-1 30 Apr 18:40:35 18:43:19 16° 297° (WNW) 18:46:02 437.445
AUBIESAT-1 30 Apr 18:44:17 18:48:21 30° 63° (ENE) 18:52:22 437.475
BEESAT 3 30 Apr 18:48:26 18:49:26 11° 108° (ESE) 18:50:26 437.485
LilacSat-2 30 Apr 18:49:14 18:53:02 56° 74° (ENE) 18:56:51 437.200
Cosmos 2491 30 Apr 18:52:22 19:01:11 66° 79° (E) 19:09:53 435.465 / 435.565
NOAA 18 30 Apr 18:54:13 18:59:44 81° 256° (WSW) 19:05:16 137.9125
CUTE-I 30 Apr 19:03:15 19:08:36 90° 3° (N) 19:13:56 437.470
STARS 30 Apr 19:04:11 19:06:57 17° 297° (WNW) 19:09:43 437.465
YUBILEINY 30 Apr 19:06:16 19:13:49 34° 84° (E) 19:21:21 435.215
CINEMA 3 30 Apr 19:19:20 19:20:36 11° 59° (ENE) 19:21:51 145.822/145.860
GOMX 1 30 Apr 19:41:31 19:46:28 87° 257° (WSW) 19:51:47 467.674
Cubesat XI-IV 30 Apr 19:47:26 19:52:20 37° 262° (W) 19:57:16 437.490
DOVE 4 30 Apr 19:50:15 19:55:13 60° 73° (ENE) 20:00:25 437.250
NOAA 15 30 Apr 19:55:56 19:59:49 21° 267° (W) 20:03:44 137.62
BRITE-PL 30 Apr 19:55:56 20:00:08 32° 266° (W) 20:04:41 437.365/2234.400
M-CUBED/EXP-1 PRIME 30 Apr 19:57:14 20:01:42 42° 257° (WSW) 20:06:11 437.505
CANX-2 30 Apr 19:57:21 20:00:38 22° 68° (ENE) 20:03:56 2200.000
CUBESAT XI-V 30 Apr 20:01:56 20:05:59 30° 292° (WNW) 20:10:03 437.345
AAUSAT CUBESAT 2 30 Apr 20:10:23 20:11:48 12° 62° (ENE) 20:13:11 437.432
STRAND 1 30 Apr 20:18:21 20:23:04 36° 98° (E) 20:27:45 437.568
AUBIESAT-1 30 Apr 20:18:37 20:22:43 31° 259° (WSW) 20:26:50 437.475
CUBEBUG 2 30 Apr 20:21:51 20:24:28 15° 63° (ENE) 20:27:05 437.445
Cosmos 2504 30 Apr 20:21:59 20:27:19 22° 83° (E) 20:32:34 435.465 / 435.565
HO-68 30 Apr 20:22:21 20:29:20 60° 68° (ENE) 20:36:20 435.675
BEESAT 3 30 Apr 20:22:40 20:26:35 66° 305° (NW) 20:30:32 437.485
BEESAT 2 30 Apr 20:25:02 20:29:00 77° 121° (ESE) 20:33:01 435.950
LilacSat-2 30 Apr 20:26:53 20:27:41 11° 270° (W) 20:28:30 437.200
CUTE 1.7 + AOD 2 30 Apr 20:29:47 20:33:47 43° 72° (ENE) 20:37:47 437.475
CUTE-I 30 Apr 20:48:00 20:49:20 11° 272° (W) 20:50:39 437.470
RS-15 30 Apr 20:49:09 20:54:17 14° 94° (E) 20:59:29 29.354- 29.394
Cosmos 2491 30 Apr 20:50:19 20:57:15 27° 279° (W) 21:04:09 435.465 / 435.565
CINEMA 3 30 Apr 20:51:53 20:56:53 82° 76° (ENE) 21:01:56 145.822/145.860
ZACube-1 30 Apr 20:56:00 20:58:37 15° 64° (ENE) 21:01:13 437.345
PRISM 30 Apr 20:56:15 20:58:55 16° 93° (E) 21:01:34 437.425
SEEDS 30 Apr 21:01:22 21:05:32 73° 75° (ENE) 21:09:42 437.485
YUBILEINY 30 Apr 21:01:45 21:10:14 53° 284° (WNW) 21:18:43 435.215
COMPASS 1 30 Apr 21:09:21 21:13:26 64° 75° (ENE) 21:17:33 437.405
DOVE 4 30 Apr 21:30:06 21:33:20 17° 271° (W) 21:36:40 437.250
CANX-2 30 Apr 21:32:33 21:36:19 31° 263° (W) 21:40:07 2200.000
AIST 2 30 Apr 21:37:04 21:40:42 31° 115° (ESE) 21:44:22 435.215
Oscar 11 30 Apr 21:41:17 21:45:26 48° 72° (ENE) 21:49:35 145.826/435.025
DELFI C3 30 Apr 21:42:01 21:45:06 22° 68° (ENE) 21:48:12 145.870
AAUSAT CUBESAT 2 30 Apr 21:42:40 21:46:44 65° 259° (W) 21:50:50 437.432
FUNcube-1 30 Apr 21:49:07 21:53:30 49° 73° (ENE) 21:57:49 145.935
UWE-3 30 Apr 21:53:32 21:58:12 86° 76° (ENE) 22:02:49 435.000/436.395/437.385
CUBEBUG 2 30 Apr 21:55:51 22:00:34 65° 259° (W) 22:05:16 437.445
STRAND 1 30 Apr 21:57:48 22:02:05 28° 294° (WNW) 22:06:22 437.568
BEESAT 2 30 Apr 22:05:15 22:07:22 14° 320° (NW) 22:09:30 435.950
CUTE 1.7 + AOD 2 30 Apr 22:07:15 22:09:50 16° 268° (W) 22:12:26 437.475
AO-85 30 Apr 22:09:16 22:13:35 30° 46° (NE) 22:17:34 145.980
HO-68 30 Apr 22:11:36 22:17:26 27° 266° (W) 22:23:18 435.675
Cosmos 2504 30 Apr 22:12:48 22:20:02 63° 281° (W) 22:27:09 435.465 / 435.565
HUMSAT D 30 Apr 22:19:10 22:22:46 28° 69° (ENE) 22:26:21 437.325/437.525
ZACube-1 30 Apr 22:29:58 22:34:27 57° 260° (W) 22:38:54 437.345
PRISM 30 Apr 22:30:29 22:34:25 41° 289° (WNW) 22:38:21 437.425
CINEMA 3 30 Apr 22:32:52 22:34:35 12° 272° (W) 22:36:19 145.822/145.860
COMPASS 1 30 Apr 22:48:48 22:49:26 10° 271° (W) 22:50:03 437.405
RS-15 30 Apr 22:53:05 23:04:10 69° 116° (ESE) 23:15:54 29.354- 29.394
ANTELSAT 30 Apr 22:57:34 23:00:11 16° 91° (E) 23:02:45 437.575/2403.000
AISAT 30 Apr 23:14:34 23:17:40 19° 64° (ENE) 23:20:46 437.250
AIST 2 30 Apr 23:15:37 23:19:11 27° 312° (NW) 23:22:47 435.215
DELFI C3 30 Apr 23:16:29 23:19:52 27° 264° (W) 23:23:15 145.870
Oscar 11 30 Apr 23:19:18 23:21:48 15° 269° (W) 23:24:20 145.826/435.025
ESTCUBE 1 30 Apr 23:22:42 23:26:31 29° 68° (ENE) 23:30:22 437.505/2401.250
FUNcube-1 30 Apr 23:27:10 23:29:59 16° 268° (W) 23:32:47 145.935
SPROUT 30 Apr 23:35:40 23:36:33 11° 61° (ENE) 23:37:24 437.525
50 SAT 30 Apr 23:37:10 23:40:20 29° 70° (ENE) 23:43:31 437.505
AO-85 30 Apr 23:49:49 23:54:05 34° 247° (WSW) 23:58:00 145.980
UNISAT 6 30 Apr 23:50:31 23:54:51 60° 101° (E) 23:59:04 437.425
HUMSAT D 30 Apr 23:54:50 23:58:21 25° 265° (W) 00:01:51 437.325/437.525
CUBEBUG 1 30 Apr 23:56:43 00:00:52 45° 72° (ENE) 00:05:05 437.445
NANOSAT C BR1 01 May 00:06:00 00:08:40 16° 92° (E) 00:11:18 145.865
TIGRISAT 01 May 00:08:52 00:13:15 89° 284° (WNW) 00:17:30 435.000
VELOX 1 01 May 00:17:32 00:21:57 80° 77° (ENE) 00:26:26 145.980
DX 1 01 May 00:22:33 00:26:53 83° 78° (ENE) 00:31:18 434.975-435.025
ANTELSAT 01 May 00:33:00 00:37:10 46° 288° (WNW) 00:41:15 437.575/2403.000
UKube-1 01 May 00:33:21 00:37:39 89° 90° (E) 00:42:01 .
Cosmos 2499 01 May 00:39:12 00:40:50 11° 76° (ENE) 00:42:29 435.465 / 435.565
AISAT 01 May 00:49:35 00:53:48 44° 261° (W) 00:58:06 437.250
GONETS M04 01 May 00:49:48 00:57:38 37° 85° (E) 01:05:26
QB50P2 01 May 00:55:26 00:59:41 64° 101° (E) 01:03:52 145.880/145.840
POLYITAN 1 01 May 00:57:34 01:01:48 65° 101° (E) 01:05:59 437.675
DUCHIFAT 1 01 May 00:58:21 01:02:33 59° 101° (E) 01:06:41 145.980
ESTCUBE 1 01 May 00:59:28 01:03:17 27° 265° (W) 01:07:07 437.505/2401.250
POPSAT HIP 1 01 May 01:00:48 01:05:03 69° 103° (ESE) 01:09:15 437.405
QB50P1 01 May 01:04:15 01:08:31 77° 101° (ESE) 01:12:44 145.935-145.965
RS-15 01 May 01:06:43 01:17:26 43° 322° (NW) 01:28:46 29.354- 29.394
SPROUT 01 May 01:07:32 01:11:50 80° 256° (WSW) 01:16:12 437.525
50 SAT 01 May 01:11:38 01:14:11 18° 266° (W) 01:16:44 437.505
O/OREOS (USA 219) 01 May 01:19:11 01:23:19 33° 60° (ENE) 01:27:22 437.305
CUSAT 1 01 May 01:20:41 01:23:59 13° 62° (ENE) 01:27:28 437.405
BEESAT 01 May 01:24:52 01:25:56 11° 58° (ENE) 01:27:01 436.000
UNISAT 6 01 May 01:28:56 01:31:02 13° 298° (WNW) 01:33:06 437.425
CUBEBUG 1 01 May 01:34:36 01:37:24 17° 268° (W) 01:40:13 437.445
PCSat 01 May 01:34:48 01:40:00 43° 54° (NE) 01:45:08 145.827
Oscar 19 01 May 01:37:03 01:38:14 11° 88° (E) 01:39:26 437.125/150
NANOSAT C BR1 01 May 01:40:36 01:44:37 43° 288° (WNW) 01:48:36 145.865
AIST 1 01 May 01:42:32 01:46:50 89° 267° (W) 01:51:12
JAS-2 01 May 01:44:28 01:51:22 34° 94° (E) 01:58:15 435.910
BUGSAT 1 01 May 01:49:49 01:54:03 74° 285° (WNW) 01:58:11 437.445
TISAT 1 01 May 01:50:00 01:54:15 88° 250° (WSW) 01:58:33 437.305
ITUPSAT 1 01 May 02:14:45 02:18:57 32° 68° (ENE) 02:23:09 437.325
SWISSCUBE 01 May 02:25:01 02:29:31 45° 71° (ENE) 02:34:03 437.505
Cosmos 2499 01 May 02:25:29 02:32:35 77° 96° (E) 02:39:40 435.465 / 435.565
QB50P2 01 May 02:33:11 02:34:56 12° 298° (WNW) 02:36:41 145.880/145.840
POLYITAN 1 01 May 02:35:22 02:37:03 12° 298° (WNW) 02:38:44 437.675
DUCHIFAT 1 01 May 02:35:45 02:37:44 13° 298° (WNW) 02:39:43 145.980
POPSAT HIP 1 01 May 02:38:48 02:40:15 12° 299° (WNW) 02:41:42 437.405
QB50P1 01 May 02:42:50 02:43:40 10° 299° (WNW) 02:44:28 145.935-145.965
GONETS M04 01 May 02:45:39 02:54:10 50° 285° (WNW) 03:02:42
Gurwin Techsat 1B 01 May 02:50:32 02:54:46 24° 94° (E) 02:58:59 435.225
BEESAT 01 May 02:58:12 03:02:57 88° 82° (E) 03:07:45 436.000
O/OREOS (USA 219) 01 May 02:58:53 03:02:32 24° 258° (WSW) 03:06:09 437.305
CUSAT 1 01 May 03:00:05 03:07:05 67° 78° (ENE) 03:15:03 437.405
BEESAT 3 01 May 03:04:11 03:05:15 11° 37° (NE) 03:06:19 437.485
Oscar 19 01 May 03:13:00 03:18:15 89° 284° (WNW) 03:23:26 437.125/150
PCSat 01 May 03:18:36 03:23:10 28° 251° (WSW) 03:27:43 145.827
DANDE 01 May 03:22:47 03:28:55 51° 77° (ENE) 03:36:29 436.750
RS-15 01 May 03:25:19 03:34:22 24° 355° (N) 03:43:41 29.354- 29.394
JAS-2 01 May 03:29:04 03:36:32 56° 291° (WNW) 03:44:08 435.910
MOZHAYETS 4 01 May 03:49:18 03:52:58 24° 67° (ENE) 03:56:38
ITUPSAT 1 01 May 03:52:43 03:56:46 27° 264° (W) 04:00:51 437.325
KKS-1 01 May 04:00:53 04:05:13 51° 72° (ENE) 04:09:35 437.445
SWISSCUBE 01 May 04:04:08 04:07:32 19° 267° (W) 04:10:56 437.505
Cosmos 2499 01 May 04:21:49 04:26:32 19° 296° (WNW) 04:31:16 435.465 / 435.565
STARS 01 May 04:23:25 04:27:39 46° 71° (ENE) 04:31:55 437.465
ITAMSAT 1 01 May 04:26:47 04:31:59 77° 103° (ESE) 04:37:11 435.822/435.867
Gurwin Techsat 1B 01 May 04:29:51 04:34:53 44° 291° (WNW) 04:39:54 435.225
BEESAT 3 01 May 04:39:41 04:43:40 78° 58° (ENE) 04:47:35 437.485
BEESAT 2 01 May 04:42:55 04:46:48 49° 53° (NE) 04:50:40 435.950
CUSAT 1 01 May 04:43:07 04:48:50 26° 272° (W) 04:55:06 437.405
Oscar 19 01 May 04:54:40 04:56:46 12° 302° (WNW) 04:58:51 437.125/150
DANDE 01 May 05:06:03 05:11:38 31° 269° (W) 05:18:14 436.750
AO-7 01 May 05:14:17 05:22:32 61° 104° (ESE) 05:30:45 29.400- 29.500
YUBILEINY 01 May 05:16:13 05:21:27 17° 59° (ENE) 05:26:39 435.215
JAS-2 01 May 05:17:10 05:19:59 12° 309° (NW) 05:22:51 435.910
HORYU 2 01 May 05:19:56 05:22:52 17° 93° (E) 05:25:48 437.375
MOZHAYETS 4 01 May 05:25:49 05:29:58 34° 263° (W) 05:34:08
CUBESAT XI-V 01 May 05:28:20 05:32:16 29° 68° (ENE) 05:36:14 437.345
KKS-1 01 May 05:39:24 05:42:04 16° 268° (W) 05:44:46 437.445
RS-15 01 May 05:41:20 05:52:04 34° 30° (NNE) 06:02:54 29.354- 29.394
AIST 2 01 May 05:57:55 06:01:24 25° 47° (NE) 06:04:52 435.215
STARS 01 May 06:01:22 06:04:14 17° 267° (W) 06:07:07 437.465
Cosmos 2491 01 May 06:02:50 06:06:53 14° 74° (ENE) 06:10:55 435.465 / 435.565
ITAMSAT 1 01 May 06:08:00 06:10:49 15° 301° (WNW) 06:13:37 435.822/435.867
BEESAT 2 01 May 06:21:59 06:24:16 15° 250° (WSW) 06:26:32 435.950
BRITE-PL 01 May 06:23:45 06:25:34 11° 86° (E) 06:27:24 437.365/2234.400
Cubesat XI-IV 01 May 06:27:56 06:28:13 10° 88° (E) 06:28:29 437.490
NOAA 15 01 May 06:30:26 06:34:03 18° 92° (E) 06:37:38 137.62
HORYU 2 01 May 06:55:26 06:59:39 44° 289° (WNW) 07:03:49 437.375
CUBESAT XI-V 01 May 07:05:38 07:09:35 28° 265° (W) 07:13:35 437.345
SO-50 01 May 07:05:52 07:07:02 11° 106° (ESE) 07:08:13 436.795
AO-7 01 May 07:07:43 07:14:50 33° 303° (WNW) 07:21:58 29.400- 29.500
YUBILEINY 01 May 07:11:02 07:19:47 80° 82° (E) 07:28:31 435.215
NOAA 18 01 May 07:16:06 07:21:16 41° 99° (E) 07:26:22 137.9125
CUTE-I 01 May 07:20:13 07:25:04 35° 97° (E) 07:29:53 437.470
STRAND 1 01 May 07:34:26 07:39:23 55° 72° (ENE) 07:44:22 437.568
AIST 2 01 May 07:36:11 07:39:56 34° 245° (WSW) 07:43:40 435.215
M-CUBED/EXP-1 PRIME 01 May 07:39:02 07:40:26 12° 94° (E) 07:41:48 437.505
GOMX 1 01 May 07:43:26 07:48:16 31° 94° (E) 07:52:55 467.674
PRISM 01 May 07:47:06 07:49:03 13° 62° (ENE) 07:50:59 437.425
DOVE 4 01 May 07:50:22 07:53:45 17° 89° (E) 07:57:00 437.250
Cosmos 2491 01 May 07:53:18 08:02:04 75° 94° (E) 08:10:54 435.465 / 435.565
RS-15 01 May 07:54:12 08:06:34 85° 57° (ENE) 08:18:56 29.354- 29.394
LilacSat-2 01 May 07:56:29 08:00:19 83° 102° (ESE) 08:04:05 437.200
AUBIESAT-1 01 May 07:58:30 08:00:59 16° 96° (E) 08:03:21 437.475
BRITE-PL 01 May 07:59:03 08:04:48 84° 103° (ESE) 08:10:26 437.365/2234.400
Cosmos 2504 01 May 08:03:30 08:10:43 47° 76° (ENE) 08:18:23 435.465 / 435.565
Cubesat XI-IV 01 May 08:03:40 08:09:01 86° 103° (ESE) 08:14:21 437.490
NOAA 15 01 May 08:08:57 08:14:11 58° 288° (WNW) 08:19:23 137.62
SO-50 01 May 08:41:51 08:46:46 88° 122° (ESE) 08:51:43 436.795
SEEDS 01 May 08:47:01 08:48:31 12° 90° (E) 08:50:02 437.485
CINEMA 3 01 May 08:47:47 08:51:05 19° 91° (E) 08:54:16 145.822/145.860
NOAA 18 01 May 08:57:10 09:01:42 28° 296° (WNW) 09:06:15 137.9125
CUTE-I 01 May 09:00:24 09:05:01 31° 294° (WNW) 09:09:37 437.470
ISS 01 May 09:02:17 09:05:31 71° 143° (SE) 09:08:47 145.825
YUBILEINY 01 May 09:09:31 09:15:30 21° 281° (WNW) 09:21:31 435.215
M-CUBED/EXP-1 PRIME 01 May 09:11:30 09:15:27 51° 292° (WNW) 09:19:03 437.505
STRAND 1 01 May 09:15:28 09:18:54 18° 268° (W) 09:22:20 437.568
CANX-2 01 May 09:16:44 09:20:43 40° 98° (E) 09:24:42 2200.000
PRISM 01 May 09:19:54 09:23:53 55° 259° (W) 09:27:55 437.425
GOMX 1 01 May 09:21:21 09:26:19 36° 292° (WNW) 09:31:06 467.674
AAUSAT CUBESAT 2 01 May 09:25:25 09:28:20 18° 93° (E) 09:31:15 437.432
DOVE 4 01 May 09:26:45 09:31:50 56° 287° (WNW) 09:36:39 437.250
AUBIESAT-1 01 May 09:32:02 09:35:41 36° 295° (WNW) 09:39:05 437.475
HO-68 01 May 09:37:00 09:44:05 60° 102° (ESE) 09:51:07 435.675
BRITE-PL 01 May 09:39:14 09:42:29 16° 300° (WNW) 09:45:46 437.365/2234.400
UWE-3 01 May 09:44:26 09:47:03 16° 91° (E) 09:49:37 435.000/436.395/437.385
Cubesat XI-IV 01 May 09:45:47 09:48:22 14° 302° (WNW) 09:50:56 437.490
CUBEBUG 2 01 May 09:47:15 09:50:49 25° 94° (E) 09:54:18 437.445
CUTE 1.7 + AOD 2 01 May 09:49:44 09:53:58 85° 103° (ESE) 09:58:12 437.475
Cosmos 2491 01 May 09:52:57 09:59:50 25° 295° (WNW) 10:06:46 435.465 / 435.565
ANTELSAT 01 May 09:56:42 09:59:41 17° 64° (ENE) 10:02:39 437.575/2403.000
Cosmos 2504 01 May 09:57:14 10:03:52 35° 273° (W) 10:10:53 435.465 / 435.565
RS-15 01 May 10:08:07 10:17:39 28° 259° (WSW) 10:27:12 29.354- 29.394
ZACube-1 01 May 10:18:37 10:22:08 25° 95° (E) 10:25:34 437.345
SEEDS 01 May 10:20:28 10:24:35 58° 286° (WNW) 10:28:42 437.485
CINEMA 3 01 May 10:24:01 10:28:27 42° 289° (WNW) 10:32:41 145.822/145.860
SO-50 01 May 10:24:42 10:27:55 17° 322° (NW) 10:31:09 436.795
COMPASS 1 01 May 10:27:13 10:31:21 68° 285° (WNW) 10:35:29 437.405
ISS 01 May 10:39:34 10:42:15 23° 341° (NNW) 10:44:57 145.825
UNISAT 6 01 May 10:49:05 10:53:39 56° 73° (ENE) 10:58:10 437.425
DELFI C3 01 May 10:53:20 10:56:59 34° 98° (E) 11:00:37 145.870
CANX-2 01 May 10:53:25 10:56:17 18° 294° (WNW) 10:59:08 2200.000
NANOSAT C BR1 01 May 10:59:15 11:01:26 14° 63° (ENE) 11:03:40 145.865
GONETS M04 01 May 11:00:00 11:05:40 18° 60° (ENE) 11:11:16
AAUSAT CUBESAT 2 01 May 11:00:09 11:03:56 36° 289° (WNW) 11:07:44 437.432
PHONESAT 2.4 01 May 11:01:59 11:03:52 15° 151° (SSE) 11:05:47 2401.200-2431.200
Oscar 11 01 May 11:03:52 11:08:12 85° 283° (WNW) 11:12:30 145.826/435.025
TIGRISAT 01 May 11:07:08 11:11:49 83° 76° (ENE) 11:16:26 435.000
FUNcube-1 01 May 11:12:59 11:17:12 82° 285° (WNW) 11:21:21 145.935
UWE-3 01 May 11:19:42 11:23:46 43° 288° (WNW) 11:27:44 435.000/436.395/437.385
CUBEBUG 2 01 May 11:23:42 11:27:26 29° 292° (WNW) 11:31:05 437.445
HO-68 01 May 11:25:28 11:31:19 28° 301° (WNW) 11:37:11 435.675
ANTELSAT 01 May 11:31:26 11:36:00 53° 260° (W) 11:40:30 437.575/2403.000
HUMSAT D 01 May 11:37:09 11:41:07 47° 99° (E) 11:45:02 437.325/437.525
QB50P2 01 May 11:48:06 11:52:14 49° 73° (ENE) 11:56:23 145.880/145.840
AIST 1 01 May 11:49:40 11:53:13 23° 73° (ENE) 11:56:46
POLYITAN 1 01 May 11:50:12 11:54:21 50° 73° (ENE) 11:58:32 437.675
DUCHIFAT 1 01 May 11:50:18 11:54:22 45° 72° (ENE) 11:58:27 145.980
POPSAT HIP 1 01 May 11:53:16 11:57:26 53° 73° (ENE) 12:01:38 437.405
ZACube-1 01 May 11:54:49 11:58:23 27° 291° (WNW) 12:01:54 437.345
QB50P1 01 May 11:56:38 12:00:51 59° 74° (ENE) 12:05:04 145.935-145.965
JAS-2 01 May 12:00:29 12:03:24 14° 52° (NE) 12:06:26 435.910
VELOX 1 01 May 12:08:45 12:11:18 15° 91° (E) 12:13:50 145.980
DX 1 01 May 12:11:59 12:14:16 14° 91° (E) 12:16:32 434.975-435.025
Cosmos 2499 01 May 12:15:15 12:21:38 28° 69° (ENE) 12:28:22 435.465 / 435.565
ISS 01 May 12:17:37 12:19:35 15° 1° (N) 12:21:33 145.825
UKube-1 01 May 12:21:38 12:24:00 14° 92° (E) 12:26:21 .
AO-85 01 May 12:27:30 12:28:12 10° 104° (ESE) 12:28:55 145.980
UNISAT 6 01 May 12:28:02 12:30:40 15° 269° (W) 12:33:18 437.425
DELFI C3 01 May 12:28:49 12:31:37 19° 293° (WNW) 12:34:26 145.870
NANOSAT C BR1 01 May 12:32:31 12:36:42 57° 259° (W) 12:40:56 145.865
PHONESAT 2.4 01 May 12:37:16 12:40:19 47° 166° (SSE) 12:43:23 2401.200-2431.200
BUGSAT 1 01 May 12:39:19 12:43:32 78° 77° (ENE) 12:47:49 437.445
AISAT 01 May 12:39:24 12:43:28 33° 97° (E) 12:47:30 437.250
50 SAT 01 May 12:39:57 12:43:20 34° 98° (E) 12:46:41 437.505
ESTCUBE 1 01 May 12:50:40 12:55:09 59° 101° (E) 12:59:37 437.505/2401.250
Oscar 19 01 May 12:53:00 12:56:28 18° 62° (ENE) 12:59:58 437.125/150
SPROUT 01 May 12:54:19 12:57:10 17° 92° (E) 12:59:59 437.525
GONETS M04 01 May 12:55:05 13:03:55 85° 82° (E) 13:12:37
HUMSAT D 01 May 13:14:04 13:16:21 15° 296° (WNW) 13:18:38 437.325/437.525
CUBEBUG 1 01 May 13:20:49 13:25:17 88° 97° (E) 13:29:43 437.445
QB50P2 01 May 13:25:55 13:28:19 15° 269° (W) 13:30:43 145.880/145.840
AIST 1 01 May 13:26:58 13:30:49 30° 270° (W) 13:34:40
DUCHIFAT 1 01 May 13:27:40 13:30:17 16° 268° (W) 13:32:56 145.980
POLYITAN 1 01 May 13:28:05 13:30:27 14° 269° (W) 13:32:50 437.675
POPSAT HIP 1 01 May 13:31:21 13:33:33 14° 269° (W) 13:35:44 437.405
QB50P1 01 May 13:35:14 13:37:00 12° 270° (W) 13:38:46 145.935-145.965
TISAT 1 01 May 13:35:15 13:37:26 14° 91° (E) 13:39:37 437.305
JAS-2 01 May 13:41:14 13:47:04 75° 74° (ENE) 13:53:47 435.910
VELOX 1 01 May 13:43:43 13:48:05 52° 287° (WNW) 13:52:25 145.980
DX 1 01 May 13:46:29 13:50:47 54° 287° (WNW) 13:55:03 434.975-435.025
ISS 01 May 13:54:03 13:56:52 26° 21° (NNE) 13:59:41 145.825
UKube-1 01 May 13:56:07 14:00:20 52° 288° (WNW) 14:04:32 .
AO-85 01 May 14:02:25 14:07:51 74° 120° (ESE) 14:13:16 145.980
Cosmos 2499 01 May 14:07:37 14:15:08 61° 268° (W) 14:23:16 435.465 / 435.565
ITAMSAT 1 01 May 14:08:18 14:11:25 16° 60° (ENE) 14:14:32 435.822/435.867
Gurwin Techsat 1B 01 May 14:11:44 14:16:37 39° 69° (ENE) 14:21:32 435.225
PHONESAT 2.4 01 May 14:13:55 14:17:04 67° 183° (S) 14:20:13 2401.200-2431.200
50 SAT 01 May 14:14:38 14:16:52 16° 294° (WNW) 14:19:05 437.505
AISAT 01 May 14:16:11 14:19:47 24° 293° (WNW) 14:23:22 437.250
AO-7 01 May 14:24:31 14:30:05 20° 50° (NE) 14:35:37 29.400- 29.500
SWISSCUBE 01 May 14:27:26 14:28:34 11° 89° (E) 14:29:42 437.505
ESTCUBE 1 01 May 14:28:56 14:31:28 15° 297° (WNW) 14:34:02 437.505/2401.250
SPROUT 01 May 14:29:15 14:33:19 42° 289° (WNW) 14:37:21 437.525
Oscar 19 01 May 14:30:12 14:35:18 60° 259° (W) 14:40:28 437.125/150
GONETS M04 01 May 14:53:50 14:59:32 20° 282° (WNW) 15:05:13
BEESAT 01 May 14:58:41 15:02:20 22° 94° (E) 15:05:58 436.000
TISAT 1 01 May 15:09:17 15:13:24 50° 287° (WNW) 15:17:28 437.305
JAS-2 01 May 15:29:23 15:33:03 17° 274° (W) 15:37:00 435.910
ISS 01 May 15:30:18 15:33:30 54° 219° (SW) 15:36:42 145.825
O/OREOS (USA 219) 01 May 15:31:40 15:35:51 35° 105° (ESE) 15:40:02 437.305
SO-50 01 May 15:34:01 15:36:49 15° 36° (NE) 15:39:32 436.795
AO-85 01 May 15:44:42 15:48:55 22° 319° (NW) 15:53:04 145.980
ITAMSAT 1 01 May 15:45:09 15:50:19 69° 258° (WSW) 15:55:30 435.822/435.867
PHONESAT 2.4 01 May 15:50:51 15:53:45 33° 199° (SSW) 15:56:38 2401.200-2431.200
ITUPSAT 1 01 May 15:51:49 15:56:37 73° 103° (ESE) 16:01:22 437.325
Gurwin Techsat 1B 01 May 15:52:13 15:56:39 27° 265° (W) 16:01:08 435.225
SWISSCUBE 01 May 16:02:09 16:06:55 79° 285° (WNW) 16:11:40 437.505
